Location: Lamy Ridge Observatory
(35.5010°N, 105.8759°W)
Time: 18:25:30
(UTC-06:00)

ACS3 Solar Sail - Pass Details

Date: 10 September 2024
Orbit: 963 x 1036 km, 97.4° (Epoch: 04 October)

Event Time Altitude Azimuth Distance (km) Brightness Sun altitude
Exits shadow 19:46:23 - 95° (E) 3,019 3.7 -6.8°
Reaches altitude 10° 19:47:29 10° 87° (E) 2,820 3.6 -7.0°
Drops below altitude 10° 19:52:57 10° 35° (NE) 2,836 4.0 -8.1°
Enters shadow 21:05:31 -44° 167° (SSE) 10,201 7.0 -22.2°
Maximum altitude 21:33:11 89° 253° (WSW) 1,032 1.8 -27.3°
